KD7KCN-5 Weather Reports


Display with metric or nautical units.
time (UTC)temp
F
wind
direction
speed
MPH
gust
MPH
rain 1hr
in
rain 24hr
in
rain mn
in
humidity
%
barometer
mb
20260510082134 63 338 12.0 22.0 0.00 0.00 0.00 13 1018.2
20260510081134 63 345 13.0 20.0 0.00 0.00 0.00 13 1018.3
20260510080133 63 345 12.0 20.0 0.00 0.00 0.00 13 1018.3
20260510075133 63 343 12.0 18.0 0.00 0.00 0.00 13 1018.2
20260510074133 63 342 12.0 21.0 0.00 0.00 0.00 13 1018.2
20260510073133 63 335 11.0 20.0 0.00 0.00 0.00 14 1018.1
20260510072133 63 338 10.0 20.0 0.00 0.00 0.00 14 1017.9
20260510071134 63 346 11.0 25.0 0.00 0.00 0.00 14 1017.9
20260510070134 64 349 10.0 23.0 0.00 0.00 0.00 15 1017.7
20260510065133 64 351 14.0 30.0 0.00 0.00 0.00 15 1017.4
20260510064133 65 345 13.0 25.0 0.00 0.00 0.00 15 1017.4
20260510063133 65 349 17.0 30.0 0.00 0.00 0.00 15 1017.0
20260510062133 66 352 15.0 26.0 0.00 0.00 0.00 16 1016.9
20260510061134 66 2 16.0 28.0 0.00 0.00 0.00 16 1016.7
20260510060134 66 357 15.0 27.0 0.00 0.00 0.00 16 1016.6
20260510055134 66 3 16.0 25.0 0.00 0.00 0.00 17 1016.5
20260510054134 66 357 16.0 23.0 0.00 0.00 0.00 17 1016.4
20260510053133 66 355 13.0 23.0 0.00 0.00 0.00 18 1016.4
20260510052134 66 354 11.0 18.0 0.00 0.00 0.00 18 1016.4
20260510051134 66 7 12.0 17.0 0.00 0.00 0.00 19 1016.4
20260510050134 66 347 8.0 16.0 0.00 0.00 0.00 19 1016.5
20260510045134 67 334 6.0 19.0 0.00 0.00 0.00 19 1016.4
20260510044134 67 334 8.0 14.0 0.00 0.00 0.00 19 1016.4
20260510043134 68 332 8.0 13.0 0.00 0.00 0.00 19 1016.0
20260510042134 68 328 7.0 14.0 0.00 0.00 0.00 20 1016.0
20260510041134 68 356 3.0 14.0 0.00 0.00 0.00 20 1015.9
20260510040134 69 354 8.0 15.0 0.00 0.00 0.00 20 1015.7
20260510035134 70 349 11.0 15.0 0.00 0.00 0.00 20 1015.4
20260510034134 71 328 7.0 11.0 0.00 0.00 0.00 19 1015.1
20260510032134 70 334 5.0 12.0 0.00 0.00 0.00 20 1014.7
20260510031134 71 328 3.0 12.0 0.00 0.00 0.00 19 1014.4
20260510030134 71 1 7.0 13.0 0.00 0.00 0.00 19 1015.1
20260510025134 72 21 4.0 11.0 0.00 0.00 0.00 19 1014.9
20260510024134 73 15 3.0 12.0 0.00 0.00 0.00 19 1014.7
20260510023134 73 18 9.0 14.0 0.00 0.00 0.00 18 1014.5
20260510022134 74 357 12.0 17.0 0.00 0.00 0.00 18 1014.4
20260510021134 75 341 8.0 16.0 0.00 0.00 0.00 15 1014.2
20260510020134 76 337 8.0 15.0 0.00 0.00 0.00 14 1014.1
20260510015134 77 331 7.0 14.0 0.00 0.00 0.00 14 1014.1
20260510014134 78 338 7.0 16.0 0.00 0.00 0.00 14 1014.0
20260510013135 79 334 5.0 13.0 0.00 0.00 0.00 14 1013.9
20260510012134 79 337 7.0 17.0 0.00 0.00 0.00 14 1014.0
20260510011134 80 334 7.0 18.0 0.00 0.00 0.00 13 1013.8
20260510010134 81 333 7.0 19.0 0.00 0.00 0.00 13 1013.8
20260510005134 82 353 11.0 19.0 0.00 0.00 0.00 14 1013.8
20260510003135 83 342 5.0 18.0 0.00 0.00 0.00 14 1013.7
20260510002134 83 343 12.0 22.0 0.00 0.00 0.00 13 1013.7
20260510001134 83 340 8.0 22.0 0.00 0.00 0.00 13 1013.6
20260510000134 83 354 14.0 19.0 0.00 0.00 0.00 13 1013.5
20260509235134 83 341 14.0 27.0 0.00 0.00 0.00 13 1013.4
20260509234135 84 345 15.0 23.0 0.00 0.00 0.00 13 1013.5
20260509233136 84 341 14.0 22.0 0.00 0.00 0.00 12 1013.4
20260509232135 83 335 11.0 25.0 0.00 0.00 0.00 14 1013.5
20260509231135 84 350 12.0 21.0 0.00 0.00 0.00 13 1013.7
20260509230135 84 259 8.0 23.0 0.00 0.00 0.00 14 1013.7
20260509225134 82 357 8.0 21.0 0.00 0.00 0.00 15 1013.7
20260509224134 82 341 12.0 21.0 0.00 0.00 0.00 14 1013.7
20260509223135 82 339 10.0 28.0 0.00 0.00 0.00 15 1014.0
20260509222135 82 327 12.0 19.0 0.00 0.00 0.00 15 1014.0
20260509221135 83 340 12.0 19.0 0.00 0.00 0.00 15 1014.2
20260509220134 82 281 8.0 26.0 0.00 0.00 0.00 14 1014.3
20260509215135 84 323 4.0 20.0 0.00 0.00 0.00 14 1014.3
20260509214135 85 344 8.0 15.0 0.00 0.00 0.00 14 1014.5
20260509213134 86 177 1.0 14.0 0.00 0.00 0.00 15 1014.6
20260509212136 85 352 11.0 22.0 0.00 0.00 0.00 14 1014.6
20260509211135 84 6 6.0 18.0 0.00 0.00 0.00 16 1014.6
20260509210135 83 46 6.0 18.0 0.00 0.00 0.00 15 1014.8
20260509205135 82 314 1.0 14.0 0.00 0.00 0.00 17 1015.2
20260509204135 82 62 6.0 21.0 0.00 0.00 0.00 15 1015.2
20260509203137 82 359 13.0 26.0 0.00 0.00 0.00 16 1015.3
20260509202135 82 69 5.0 12.0 0.00 0.00 0.00 15 1015.5
20260509201135 82 344 6.0 19.0 0.00 0.00 0.00 15 1015.7
20260509200135 80 345 7.0 18.0 0.00 0.00 0.00 17 1015.7
20260509195135 80 103 7.0 22.0 0.00 0.00 0.00 16 1015.9
20260509194135 79 357 8.0 22.0 0.00 0.00 0.00 17 1016.1
20260509193135 78 87 2.0 14.0 0.00 0.00 0.00 20 1016.1
20260509192136 78 73 8.0 23.0 0.00 0.00 0.00 18 1016.2
20260509191135 79 15 14.0 23.0 0.00 0.00 0.00 19 1016.2
20260509190135 79 13 7.0 19.0 0.00 0.00 0.00 17 1016.4
20260509185135 81 348 14.0 18.0 0.00 0.00 0.00 18 1016.5
20260509184135 80 14 8.0 15.0 0.00 0.00 0.00 20 1016.5
20260509183135 79 34 7.0 16.0 0.00 0.00 0.00 17 1016.7
20260509182135 79 355 9.0 18.0 0.00 0.00 0.00 20 1016.8
20260509181135 78 13 14.0 21.0 0.00 0.00 0.00 19 1016.7
20260509180135 77 7 12.0 21.0 0.00 0.00 0.00 21 1016.7
20260509175135 76 63 9.0 21.0 0.00 0.00 0.00 20 1016.9
20260509174136 77 4 9.0 20.0 0.00 0.00 0.00 20 1016.8
20260509173135 76 28 13.0 20.0 0.00 0.00 0.00 19 1017.0
20260509172135 75 47 9.0 21.0 0.00 0.00 0.00 21 1016.9
20260509170135 75 27 10.0 22.0 0.00 0.00 0.00 20 1016.8
20260509165135 74 23 17.0 23.0 0.00 0.00 0.00 21 1016.7
20260509164135 75 36 13.0 21.0 0.00 0.00 0.00 21 1016.5
20260509162136 74 5 8.0 19.0 0.00 0.00 0.00 22 1016.6
20260509161136 74 353 10.0 21.0 0.00 0.00 0.00 22 1016.7
20260509160135 74 20 14.0 25.0 0.00 0.00 0.00 21 1016.6
20260509155135 73 21 12.0 21.0 0.00 0.00 0.00 21 1016.8
20260509154135 72 360 10.0 24.0 0.00 0.00 0.00 22 1016.8
20260509153136 72 31 8.0 17.0 0.00 0.00 0.00 23 1016.8
20260509152135 72 25 4.0 14.0 0.00 0.00 0.00 22 1016.8
20260509151135 70 335 6.0 15.0 0.00 0.00 0.00 24 1016.8
20260509150137 70 347 7.0 16.0 0.00 0.00 0.00 22 1016.8
20260509145136 70 329 6.0 15.0 0.00 0.00 0.00 23 1016.9
20260509144135 70 0 0.0 15.0 0.00 0.00 0.00 25 1016.9
20260509143136 70 353 5.0 16.0 0.00 0.00 0.00 23 1016.8
20260509142135 70 338 5.0 13.0 0.00 0.00 0.00 22 1016.8
20260509141136 70 340 6.0 14.0 0.00 0.00 0.00 24 1016.7
20260509140136 69 346 7.0 14.0 0.00 0.00 0.00 24 1016.6
20260509134136 68 349 2.0 13.0 0.00 0.00 0.00 26 1016.4
20260509133136 67 342 6.0 12.0 0.00 0.00 0.00 25 1016.3
20260509132136 67 335 1.0 11.0 0.00 0.00 0.00 25 1016.2
20260509131137 66 331 8.0 12.0 0.00 0.00 0.00 23 1016.1
20260509125136 62 334 8.0 12.0 0.00 0.00 0.00 26 1015.9
20260509124136 62 340 6.0 11.0 0.00 0.00 0.00 26 1015.8
20260509123136 62 334 5.0 11.0 0.00 0.00 0.00 25 1015.6
20260509122136 63 332 4.0 10.0 0.00 0.00 0.00 24 1015.6
20260509121136 63 331 6.0 11.0 0.00 0.00 0.00 24 1015.5
20260509120136 63 330 7.0 13.0 0.00 0.00 0.00 24 1015.6
20260509115136 63 330 7.0 13.0 0.00 0.00 0.00 23 1015.6
20260509114136 63 334 9.0 14.0 0.00 0.00 0.00 23 1015.4
20260509113138 63 334 9.0 14.0 0.00 0.00 0.00 23 1015.4
20260509112137 64 333 8.0 14.0 0.00 0.00 0.00 22 1015.4
20260509110136 65 335 9.0 14.0 0.00 0.00 0.00 21 1015.2
20260509105137 66 336 10.0 20.0 0.00 0.00 0.00 19 1015.0
20260509104139 67 335 7.0 25.0 0.00 0.00 0.00 17 1014.9
20260509103136 68 261 19.0 25.0 0.00 0.00 0.00 17 1014.6
20260509102136 69 261 19.0 24.0 0.00 0.00 0.00 17 1014.5
20260509101136 69 237 14.0 25.0 0.00 0.00 0.00 16 1014.4
20260509100136 69 254 19.0 27.0 0.00 0.00 0.00 15 1014.2
20260509095136 70 251 10.0 24.0 0.00 0.00 0.00 13 1014.3
20260509094136 70 257 15.0 25.0 0.00 0.00 0.00 13 1014.4
20260509093136 70 257 19.0 25.0 0.00 0.00 0.00 12 1014.2
20260509092136 70 254 19.0 24.0 0.00 0.00 0.00 11 1014.4
20260509091136 70 260 18.0 23.0 0.00 0.00 0.00 11 1014.4
20260509090136 70 263 14.0 23.0 0.00 0.00 0.00 11 1013.7
20260509084136 71 262 19.0 27.0 0.00 0.00 0.00 10 1013.6
20260509083136 71 262 19.0 26.0 0.00 0.00 0.00 10 1013.6